Weather History for Binghamton, NY

Change the Weather History Date:

Wednesday, August 31, 2011

  Actual Average Record
Temperature  
Mean Temperature 66 °F 65 °F  
Max Temperature 76 °F 74 °F 90 °F (1953)
Min Temperature 55 °F 56 °F 42 °F (1965)
Degree Days  
Heating Degree Days 0 2  
Month to date heating degree days 21 39  
Since 1 June heating degree days 72 154  
Since 1 July heating degree days 22 63  
Cooling Degree Days 1 2  
Month to date cooling degree days 105 113  
Year to date cooling degree days 484 348  
Since 1 June cooling degree days 441 325  
Growing Degree Days 14 (Base 50)    
Moisture  
Dew Point 55 °F    
Average Humidity 73    
Maximum Humidity 93    
Minimum Humidity 53    
Precipitation  
Precipitation 0.00 in 0.11 in 2.64 in (1959)
Month to date precipitation 8.90 3.45  
Year to date precipitation 41.19 26.21  
Snow  
Snow 0.00 in 0.00 in 0.00 in (2002)
Month to date snowfall 0.0 0.0  
Since 1 June snowfall 0.0 0.0  
Since 1 July snowfall 0.0 0.0  
Snow Depth 0.00 in    
Sea Level Pressure  
Sea Level Pressure 30.22 in    
Wind  
Wind Speed 3 mph (South)    
Max Wind Speed 10 mph    
Max Gust Speed 13 mph    
Visibility 10 miles    
Events      
T = Trace of Precipitation, MM = Missing Value Source: NWS Daily Summary

Daily Weather History Graph

Daily Weather History Graph

Search for Another Location

Airport:

Trip Planner

Search our weather history database for the weather conditions in past years. The results will help you decide how hot, cold, wet, or windy it might be!

Date:

Astronomy

Aug. 31, 2011 Rise Set
Actual Time 6:27 AM EDT 7:39 PM EDT
Civil Twilight 5:58 AM EDT 8:08 PM EDT
Nautical Twilight 5:24 AM EDT 8:43 PM EDT
Astronomical Twilight 4:47 AM EDT 9:19 PM EDT
Moon 9:36 AM EDT (8/31) 8:44 PM EDT (8/31)
Length of Visible Light 14h 09m
Length of Day
13h 12m
Waxing Crescent, 9% of the Moon is Illuminated
Aug 31
Waxing Crescent
Sep 4
First Quarter
Sep 12
Full
Sep 20
Last Quarter
Sep 27
New

Hourly Weather History & Observations

Time (EDT) Temp. Dew Point Humidity Pressure Visibility Wind Dir Wind Speed Gust Speed Precip Events Conditions
12:53 AM 62.1 °F 53.1 °F 72% 30.20 in 10.0 mi Calm Calm - N/A   Clear
1:53 AM 60.1 °F 55.0 °F 83% 30.21 in 10.0 mi Calm Calm - N/A   Clear
2:53 AM 59.0 °F 55.0 °F 87% 30.21 in 10.0 mi Calm Calm - N/A   Clear
3:53 AM 55.9 °F 54.0 °F 93% 30.22 in 10.0 mi South 3.5 mph - N/A   Clear
4:53 AM 57.9 °F 54.0 °F 87% 30.22 in 10.0 mi Calm Calm - N/A   Clear
5:53 AM 57.9 °F 53.1 °F 84% 30.22 in 10.0 mi Calm Calm - N/A   Clear
6:53 AM 55.0 °F 53.1 °F 93% 30.23 in 10.0 mi South 3.5 mph - N/A   Clear
7:53 AM 57.0 °F 55.0 °F 93% 30.24 in 10.0 mi Calm Calm - N/A   Clear
8:53 AM 60.1 °F 55.9 °F 86% 30.25 in 10.0 mi South 3.5 mph - N/A   Clear
9:53 AM 66.0 °F 57.0 °F 73% 30.25 in 10.0 mi Calm Calm - N/A   Clear
10:53 AM 69.1 °F 55.0 °F 61% 30.26 in 10.0 mi Calm Calm - N/A   Clear
11:53 AM 72.0 °F 55.9 °F 57% 30.25 in 10.0 mi WSW 5.8 mph - N/A   Clear
12:53 PM 73.9 °F 55.0 °F 52% 30.24 in 10.0 mi South 5.8 mph - N/A   Clear
1:02 PM - - N/A% - - North - - N/A   Unknown
1:53 PM 73.0 °F 55.9 °F 55% 30.23 in 10.0 mi SW 4.6 mph - N/A   Clear
2:53 PM 73.9 °F 57.0 °F 55% 30.21 in 10.0 mi Calm Calm - N/A   Clear
3:53 PM 73.4 °F 57.2 °F 57% 30.22 in 10.0 mi South 4.6 mph - N/A   Clear
4:53 PM 73.0 °F 55.9 °F 55% 30.20 in 10.0 mi SSW 6.9 mph - N/A   Clear
5:53 PM 72.0 °F 55.9 °F 57% 30.19 in 10.0 mi South 4.6 mph - N/A   Scattered Clouds
6:53 PM 69.8 °F 55.4 °F 60% 30.20 in 10.0 mi South 4.6 mph - N/A   Clear
7:53 PM 68.0 °F 55.0 °F 63% 30.19 in 10.0 mi SSW 3.5 mph - N/A   Clear
8:53 PM 68.0 °F 55.0 °F 63% 30.21 in 10.0 mi South 3.5 mph - N/A   Clear
9:53 PM 64.9 °F 55.9 °F 73% 30.20 in 10.0 mi SSE 4.6 mph - N/A   Clear
10:53 PM 64.9 °F 55.9 °F 73% 30.20 in 10.0 mi South 3.5 mph - N/A   Clear
11:53 PM 66.0 °F 55.9 °F 70% 30.20 in 10.0 mi South 5.8 mph - N/A   Clear